N7158C KLWM-KBDR

Flight info

Callsign N7158C
Flight time 1h 23m
Altitude 4000
Route BOSOX T303 HFD
Aircraft C172/L-SFG/C

Departure

Time 2026-05-07 03:07
Airport Lawrence Municipal Airport (KLWM)

Arrival

Time 2026-05-07 04:30
Airport Igor I Sikorsky Memorial Airport (KBDR)
Time Latitude Longitude Altitude Speed Heading
2026-05-07 02:59 42.71458 -71.12227 146 ft 0 kts 122°
2026-05-07 03:04 42.71456 -71.12223 146 ft 6 kts 106°
2026-05-07 03:04 42.71553 -71.12156 144 ft 23 kts 42°
2026-05-07 03:04 42.71634 -71.12071 143 ft 0 kts 37°
2026-05-07 03:05 42.71668 -71.12031 143 ft 22 kts 30°
2026-05-07 03:05 42.71792 -71.11949 139 ft 32 kts 25°
2026-05-07 03:05 42.72017 -71.11732 135 ft 28 kts 40°
2026-05-07 03:05 42.72149 -71.11682 138 ft 18 kts 268°
2026-05-07 03:06 42.72000 -71.11924 137 ft 56 kts 217°
2026-05-07 03:06 42.71598 -71.12330 179 ft 84 kts 215°
2026-05-07 03:06 42.71253 -71.12618 265 ft 90 kts 214°
2026-05-07 03:06 42.70728 -71.13118 459 ft 83 kts 212°
2026-05-07 03:07 42.70353 -71.13430 900 ft 53 kts 212°
2026-05-07 03:07 42.70011 -71.13620 1083 ft 56 kts 213°
2026-05-07 03:07 42.69625 -71.14010 1365 ft 55 kts 227°
2026-05-07 03:07 42.69287 -71.14298 1562 ft 59 kts 222°
2026-05-07 03:08 42.68911 -71.14593 1715 ft 66 kts 229°
2026-05-07 03:08 42.68636 -71.15032 1948 ft 57 kts 242°
2026-05-07 03:08 42.68462 -71.15308 2080 ft 61 kts 237°
2026-05-07 03:08 42.68083 -71.15714 2140 ft 78 kts 232°
2026-05-07 03:09 42.67655 -71.16156 2348 ft 78 kts 227°
2026-05-07 03:09 42.67203 -71.16568 2516 ft 81 kts 223°
2026-05-07 03:09 42.66739 -71.17006 2689 ft 81 kts 228°
2026-05-07 03:09 42.66300 -71.17479 2870 ft 78 kts 230°
2026-05-07 03:10 42.65844 -71.17927 2989 ft 85 kts 226°
2026-05-07 03:10 42.65392 -71.18394 3186 ft 78 kts 237°
2026-05-07 03:10 42.65103 -71.18994 3315 ft 78 kts 255°
2026-05-07 03:10 42.64711 -71.19559 3445 ft 86 kts 228°
2026-05-07 03:11 42.64223 -71.20028 3592 ft 88 kts 223°
2026-05-07 03:11 42.63776 -71.20364 3970 ft 63 kts 224°
2026-05-07 03:11 42.63356 -71.20714 4002 ft 79 kts 224°
2026-05-07 03:11 42.62853 -71.21161 4012 ft 93 kts 224°
2026-05-07 03:12 42.62292 -71.21680 4014 ft 100 kts 224°
2026-05-07 03:12 42.61718 -71.22226 4014 ft 100 kts 224°
2026-05-07 03:12 42.61154 -71.22772 4011 ft 99 kts 224°
2026-05-07 03:12 42.60603 -71.23308 4011 ft 99 kts 224°
2026-05-07 03:13 42.60050 -71.23849 4002 ft 98 kts 225°
2026-05-07 03:13 42.59505 -71.24384 3998 ft 95 kts 225°
2026-05-07 03:13 42.58970 -71.24909 4000 ft 95 kts 225°
2026-05-07 03:13 42.58430 -71.25439 3995 ft 98 kts 225°
2026-05-07 03:14 42.57873 -71.25987 3995 ft 100 kts 225°
2026-05-07 03:14 42.57311 -71.26540 4001 ft 100 kts 225°
2026-05-07 03:14 42.56190 -71.27641 4003 ft 101 kts 224°
2026-05-07 03:15 42.55616 -71.28206 3998 ft 102 kts 224°
2026-05-07 03:15 42.55041 -71.28771 3997 ft 101 kts 223°
2026-05-07 03:15 42.54474 -71.29327 3994 ft 100 kts 224°
2026-05-07 03:15 42.53910 -71.29880 3997 ft 101 kts 223°
2026-05-07 03:16 42.53342 -71.30438 3993 ft 101 kts 224°
2026-05-07 03:16 42.52770 -71.30999 3996 ft 102 kts 224°
2026-05-07 03:16 42.52195 -71.31564 4000 ft 102 kts 224°
2026-05-07 03:16 42.51626 -71.32121 3997 ft 100 kts 224°
2026-05-07 03:17 42.51070 -71.32666 3994 ft 100 kts 224°
2026-05-07 03:17 42.50505 -71.33220 3992 ft 100 kts 224°
2026-05-07 03:17 42.49938 -71.33776 3995 ft 101 kts 224°
2026-05-07 03:17 42.49371 -71.34332 3994 ft 101 kts 224°
2026-05-07 03:18 42.48801 -71.34891 3993 ft 101 kts 224°
2026-05-07 03:18 42.48231 -71.35449 3994 ft 101 kts 224°
2026-05-07 03:18 42.47662 -71.36006 3993 ft 101 kts 224°
2026-05-07 03:18 42.47110 -71.36547 3996 ft 101 kts 224°
2026-05-07 03:19 42.46538 -71.37053 3992 ft 93 kts 226°
2026-05-07 03:19 42.46011 -71.37601 3995 ft 98 kts 224°
2026-05-07 03:19 42.45459 -71.38152 3992 ft 99 kts 224°
2026-05-07 03:19 42.44906 -71.38699 3997 ft 100 kts 224°
2026-05-07 03:20 42.44336 -71.39259 3995 ft 100 kts 225°
2026-05-07 03:20 42.43772 -71.39812 3998 ft 100 kts 224°
2026-05-07 03:20 42.43206 -71.40365 3999 ft 101 kts 224°
2026-05-07 03:20 42.42637 -71.40923 3998 ft 102 kts 224°
2026-05-07 03:21 42.42056 -71.41491 4001 ft 103 kts 224°
2026-05-07 03:21 42.41485 -71.42049 3997 ft 103 kts 224°
2026-05-07 03:21 42.40908 -71.42612 4004 ft 102 kts 224°
2026-05-07 03:21 42.40333 -71.43174 4004 ft 102 kts 224°
2026-05-07 03:22 42.39758 -71.43735 4002 ft 102 kts 224°
2026-05-07 03:22 42.39180 -71.44299 4004 ft 102 kts 224°
2026-05-07 03:22 42.38596 -71.44871 4008 ft 105 kts 224°
2026-05-07 03:22 42.38000 -71.45452 4005 ft 105 kts 224°
2026-05-07 03:23 42.37418 -71.46020 4008 ft 105 kts 224°
2026-05-07 03:23 42.36830 -71.46593 4008 ft 103 kts 224°
2026-05-07 03:23 42.36246 -71.47162 4005 ft 104 kts 224°
2026-05-07 03:23 42.35660 -71.47733 4006 ft 103 kts 224°
2026-05-07 03:24 42.35075 -71.48304 4016 ft 106 kts 224°
2026-05-07 03:24 42.34455 -71.48915 4014 ft 116 kts 222°
2026-05-07 03:24 42.33789 -71.49566 4010 ft 117 kts 224°
2026-05-07 03:24 42.33155 -71.50182 4008 ft 109 kts 223°
2026-05-07 03:25 42.32550 -71.50769 4003 ft 106 kts 224°
2026-05-07 03:25 42.31972 -71.51330 3998 ft 101 kts 224°
2026-05-07 03:25 42.31415 -71.51870 3998 ft 97 kts 224°
2026-05-07 03:25 42.30871 -71.52397 3996 ft 96 kts 225°
2026-05-07 03:26 42.30331 -71.52922 3996 ft 95 kts 225°
2026-05-07 03:26 42.29799 -71.53438 4002 ft 92 kts 225°
2026-05-07 03:26 42.29279 -71.53944 4014 ft 92 kts 225°
2026-05-07 03:26 42.28757 -71.54451 4013 ft 93 kts 225°
2026-05-07 03:27 42.28233 -71.54962 4013 ft 93 kts 225°
2026-05-07 03:27 42.27714 -71.55465 4015 ft 93 kts 225°
2026-05-07 03:27 42.27188 -71.55977 4014 ft 93 kts 225°
2026-05-07 03:27 42.26666 -71.56482 4011 ft 92 kts 225°
2026-05-07 03:28 42.26147 -71.56987 4017 ft 91 kts 225°
2026-05-07 03:28 42.25634 -71.57485 4021 ft 91 kts 225°
2026-05-07 03:28 42.25120 -71.57984 4030 ft 92 kts 226°
2026-05-07 03:28 42.24580 -71.58511 4030 ft 100 kts 224°
2026-05-07 03:29 42.24002 -71.59077 4033 ft 104 kts 223°
2026-05-07 03:29 42.23410 -71.59652 4030 ft 107 kts 224°
2026-05-07 03:29 42.22805 -71.60237 4033 ft 106 kts 225°
2026-05-07 03:29 42.22207 -71.60817 4025 ft 106 kts 225°
2026-05-07 03:30 42.21614 -71.61392 4016 ft 104 kts 225°
2026-05-07 03:30 42.21034 -71.61951 4014 ft 101 kts 225°
2026-05-07 03:30 42.20482 -71.62510 4018 ft 96 kts 231°
2026-05-07 03:30 42.20111 -71.63200 4023 ft 87 kts 246°
2026-05-07 03:31 42.19915 -71.63950 4018 ft 84 kts 254°
2026-05-07 03:31 42.19739 -71.64690 4024 ft 84 kts 254°
2026-05-07 03:31 42.19561 -71.65448 4025 ft 85 kts 254°
2026-05-07 03:31 42.19387 -71.66192 4029 ft 80 kts 254°
2026-05-07 03:32 42.19215 -71.66921 4027 ft 83 kts 253°
2026-05-07 03:32 42.19037 -71.67681 4029 ft 87 kts 253°
2026-05-07 03:32 42.18853 -71.68466 4033 ft 88 kts 253°
2026-05-07 03:32 42.18667 -71.69262 4042 ft 89 kts 253°
2026-05-07 03:33 42.18482 -71.70055 4039 ft 88 kts 254°
2026-05-07 03:33 42.18297 -71.70843 4042 ft 88 kts 254°
2026-05-07 03:33 42.18116 -71.71617 4041 ft 88 kts 254°
2026-05-07 03:33 42.17932 -71.72400 4040 ft 88 kts 254°
2026-05-07 03:34 42.17747 -71.73190 4037 ft 88 kts 253°
2026-05-07 03:34 42.17563 -71.73975 4039 ft 86 kts 252°
2026-05-07 03:34 42.17383 -71.74740 4040 ft 85 kts 253°
2026-05-07 03:34 42.17202 -71.75510 4032 ft 87 kts 254°
2026-05-07 03:35 42.17019 -71.76287 4041 ft 87 kts 255°
2026-05-07 03:35 42.16836 -71.77070 4042 ft 88 kts 254°
2026-05-07 03:35 42.16652 -71.77852 4042 ft 89 kts 254°
2026-05-07 03:35 42.16466 -71.78648 4037 ft 89 kts 253°
2026-05-07 03:36 42.16282 -71.79424 4040 ft 86 kts 253°
2026-05-07 03:36 42.16098 -71.80205 4042 ft 89 kts 253°
2026-05-07 03:36 42.15910 -71.81007 4042 ft 90 kts 252°
2026-05-07 03:36 42.15719 -71.81822 4053 ft 92 kts 253°
2026-05-07 03:37 42.15518 -71.82687 4049 ft 100 kts 253°
2026-05-07 03:37 42.15301 -71.83619 4042 ft 108 kts 254°
2026-05-07 03:37 42.15069 -71.84608 4041 ft 113 kts 256°
2026-05-07 03:37 42.14839 -71.85593 4035 ft 110 kts 254°
2026-05-07 03:38 42.14613 -71.86549 4025 ft 104 kts 254°
2026-05-07 03:38 42.14396 -71.87456 4027 ft 99 kts 254°
2026-05-07 03:38 42.14191 -71.88319 4024 ft 95 kts 255°
2026-05-07 03:38 42.13988 -71.89172 4025 ft 96 kts 254°
2026-05-07 03:39 42.13786 -71.90022 4028 ft 94 kts 254°
2026-05-07 03:39 42.13588 -71.90859 4026 ft 94 kts 254°
2026-05-07 03:39 42.13357 -71.91685 4025 ft 93 kts 251°
2026-05-07 03:39 42.13132 -71.92477 4032 ft 87 kts 252°
2026-05-07 03:40 42.12920 -71.93228 4030 ft 87 kts 252°
2026-05-07 03:40 42.12701 -71.94005 4027 ft 90 kts 252°
2026-05-07 03:40 42.12479 -71.94791 4022 ft 90 kts 252°
2026-05-07 03:40 42.12257 -71.95577 4029 ft 90 kts 252°
2026-05-07 03:41 42.12035 -71.96366 4033 ft 90 kts 252°
2026-05-07 03:41 42.11810 -71.97163 4036 ft 91 kts 252°
2026-05-07 03:41 42.11583 -71.97967 4031 ft 92 kts 252°
2026-05-07 03:41 42.11355 -71.98773 4030 ft 91 kts 252°
2026-05-07 03:42 42.11130 -71.99572 4043 ft 92 kts 252°
2026-05-07 03:42 42.10904 -72.00371 4041 ft 94 kts 252°
2026-05-07 03:42 42.10667 -72.01213 4042 ft 98 kts 252°
2026-05-07 03:42 42.10422 -72.02085 4037 ft 100 kts 252°
2026-05-07 03:43 42.10155 -72.02947 4033 ft 100 kts 245°
2026-05-07 03:43 42.09686 -72.03658 4030 ft 103 kts 227°
2026-05-07 03:43 42.09142 -72.04267 4025 ft 101 kts 228°
2026-05-07 03:43 42.08612 -72.04872 4025 ft 99 kts 229°
2026-05-07 03:44 42.08091 -72.05465 4025 ft 98 kts 229°
2026-05-07 03:44 42.07570 -72.06061 4024 ft 99 kts 228°
2026-05-07 03:44 42.07055 -72.06648 4020 ft 97 kts 229°
2026-05-07 03:44 42.06546 -72.07230 4033 ft 96 kts 229°
2026-05-07 03:45 42.06025 -72.07830 4037 ft 100 kts 228°
2026-05-07 03:45 42.05484 -72.08449 4038 ft 104 kts 229°
2026-05-07 03:45 42.04931 -72.09079 4034 ft 105 kts 228°
2026-05-07 03:45 42.04373 -72.09715 4034 ft 105 kts 227°
2026-05-07 03:46 42.03828 -72.10334 4031 ft 102 kts 228°
2026-05-07 03:46 42.03290 -72.10947 4038 ft 101 kts 229°
2026-05-07 03:46 42.02751 -72.11562 4041 ft 102 kts 227°
2026-05-07 03:46 42.02214 -72.12175 4049 ft 102 kts 228°
2026-05-07 03:47 42.01670 -72.12796 4040 ft 103 kts 227°
2026-05-07 03:47 42.01131 -72.13408 4032 ft 100 kts 227°
2026-05-07 03:47 42.00608 -72.14002 4032 ft 96 kts 227°
2026-05-07 03:47 42.00102 -72.14576 4031 ft 94 kts 228°
2026-05-07 03:48 41.99607 -72.15137 4032 ft 92 kts 228°
2026-05-07 03:48 41.99118 -72.15693 4034 ft 93 kts 228°
2026-05-07 03:48 41.98616 -72.16265 4036 ft 95 kts 229°
2026-05-07 03:48 41.98117 -72.16833 4037 ft 95 kts 227°
2026-05-07 03:49 41.97614 -72.17404 4038 ft 94 kts 228°
2026-05-07 03:49 41.97116 -72.17970 4045 ft 94 kts 228°
2026-05-07 03:49 41.96607 -72.18551 4055 ft 97 kts 228°
2026-05-07 03:49 41.96080 -72.19154 4045 ft 102 kts 228°
2026-05-07 03:50 41.95539 -72.19767 4050 ft 101 kts 227°
2026-05-07 03:50 41.95012 -72.20365 4045 ft 99 kts 228°
2026-05-07 03:50 41.94567 -72.20869 4047 ft 98 kts 228°
2026-05-07 03:50 41.94107 -72.21390 4039 ft 95 kts 228°
2026-05-07 03:51 41.93591 -72.21975 4038 ft 94 kts 227°
2026-05-07 03:51 41.93089 -72.22543 4038 ft 94 kts 227°
2026-05-07 03:51 41.92589 -72.23108 4046 ft 94 kts 227°
2026-05-07 03:51 41.92087 -72.23679 4046 ft 95 kts 227°
2026-05-07 03:52 41.91588 -72.24244 4042 ft 92 kts 228°
2026-05-07 03:52 41.91120 -72.24770 4046 ft 85 kts 228°
2026-05-07 03:52 41.90654 -72.25301 4042 ft 90 kts 229°
2026-05-07 03:52 41.90169 -72.25853 4055 ft 93 kts 228°
2026-05-07 03:53 41.89676 -72.26414 4059 ft 96 kts 227°
2026-05-07 03:53 41.89162 -72.26998 4053 ft 98 kts 227°
2026-05-07 03:53 41.88642 -72.27587 4053 ft 98 kts 227°
2026-05-07 03:53 41.88121 -72.28176 4060 ft 97 kts 229°
2026-05-07 03:54 41.87609 -72.28758 4058 ft 96 kts 226°
2026-05-07 03:54 41.87094 -72.29341 4055 ft 97 kts 227°
2026-05-07 03:54 41.86578 -72.29925 4061 ft 97 kts 227°
2026-05-07 03:54 41.86052 -72.30520 4068 ft 101 kts 227°
2026-05-07 03:55 41.85508 -72.31123 4055 ft 101 kts 228°
2026-05-07 03:55 41.84974 -72.31715 4059 ft 101 kts 228°
2026-05-07 03:55 41.84430 -72.32317 4059 ft 102 kts 227°
2026-05-07 03:55 41.83881 -72.32923 4052 ft 102 kts 227°
2026-05-07 03:56 41.83343 -72.33518 4045 ft 99 kts 227°
2026-05-07 03:56 41.82816 -72.34101 4048 ft 98 kts 227°
2026-05-07 03:56 41.82292 -72.34681 4053 ft 98 kts 228°
2026-05-07 03:56 41.81766 -72.35265 4045 ft 98 kts 226°
2026-05-07 03:57 41.81237 -72.35850 4050 ft 98 kts 227°
2026-05-07 03:57 41.80726 -72.36415 4047 ft 96 kts 227°
2026-05-07 03:57 41.80211 -72.36986 4045 ft 96 kts 228°
2026-05-07 03:57 41.79699 -72.37550 4044 ft 94 kts 229°
2026-05-07 03:58 41.79199 -72.38104 4048 ft 93 kts 227°
2026-05-07 03:58 41.78695 -72.38661 4039 ft 94 kts 226°
2026-05-07 03:58 41.78190 -72.39221 4044 ft 95 kts 227°
2026-05-07 03:58 41.77674 -72.39791 4042 ft 97 kts 227°
2026-05-07 03:59 41.77139 -72.40382 4055 ft 102 kts 226°
2026-05-07 03:59 41.76600 -72.40979 4046 ft 100 kts 225°
2026-05-07 03:59 41.76061 -72.41574 4062 ft 101 kts 225°
2026-05-07 03:59 41.75514 -72.42177 4067 ft 102 kts 226°
2026-05-07 04:00 41.74958 -72.42790 4064 ft 104 kts 226°
2026-05-07 04:00 41.74400 -72.43407 4066 ft 104 kts 226°
2026-05-07 04:00 41.73840 -72.44024 4069 ft 105 kts 226°
2026-05-07 04:00 41.73275 -72.44649 4066 ft 106 kts 225°
2026-05-07 04:01 41.72713 -72.45267 4065 ft 103 kts 225°
2026-05-07 04:01 41.72166 -72.45869 4067 ft 102 kts 226°
2026-05-07 04:01 41.71623 -72.46468 4048 ft 102 kts 224°
2026-05-07 04:01 41.71082 -72.47062 4054 ft 100 kts 225°
2026-05-07 04:02 41.70543 -72.47656 4060 ft 101 kts 226°
2026-05-07 04:02 41.69997 -72.48260 4061 ft 102 kts 226°
2026-05-07 04:02 41.69446 -72.48865 4067 ft 103 kts 226°
2026-05-07 04:02 41.68886 -72.49484 4061 ft 105 kts 225°
2026-05-07 04:03 41.68325 -72.50104 4073 ft 105 kts 226°
2026-05-07 04:03 41.67767 -72.50719 4070 ft 106 kts 227°
2026-05-07 04:03 41.67199 -72.51343 4073 ft 105 kts 226°
2026-05-07 04:03 41.66635 -72.51964 4076 ft 105 kts 226°
2026-05-07 04:04 41.66064 -72.52593 4069 ft 106 kts 225°
2026-05-07 04:04 41.65495 -72.53218 4070 ft 106 kts 226°
2026-05-07 04:04 41.64932 -72.53837 4048 ft 103 kts 226°
2026-05-07 04:04 41.64405 -72.54411 4050 ft 95 kts 228°
2026-05-07 04:05 41.63904 -72.54982 4062 ft 96 kts 229°
2026-05-07 04:05 41.63400 -72.55606 4062 ft 100 kts 229°
2026-05-07 04:05 41.62890 -72.56229 4065 ft 101 kts 229°
2026-05-07 04:05 41.62369 -72.56866 4078 ft 102 kts 229°
2026-05-07 04:06 41.61844 -72.57511 4076 ft 103 kts 229°
2026-05-07 04:06 41.61312 -72.58163 4077 ft 104 kts 229°
2026-05-07 04:06 41.60782 -72.58809 4075 ft 103 kts 229°
2026-05-07 04:06 41.60259 -72.59448 4076 ft 102 kts 229°
2026-05-07 04:07 41.59732 -72.60093 4075 ft 103 kts 229°
2026-05-07 04:07 41.59205 -72.60738 4074 ft 102 kts 229°
2026-05-07 04:07 41.58681 -72.61376 4068 ft 101 kts 230°
2026-05-07 04:07 41.58177 -72.61991 4065 ft 98 kts 229°
2026-05-07 04:08 41.57674 -72.62605 4055 ft 99 kts 229°
2026-05-07 04:08 41.57160 -72.63233 4057 ft 101 kts 229°
2026-05-07 04:08 41.56639 -72.63870 4060 ft 102 kts 229°
2026-05-07 04:08 41.56116 -72.64509 4059 ft 102 kts 228°
2026-05-07 04:09 41.55595 -72.65144 4058 ft 101 kts 229°
2026-05-07 04:09 41.55075 -72.65779 4061 ft 102 kts 229°
2026-05-07 04:09 41.54550 -72.66419 4060 ft 102 kts 229°
2026-05-07 04:09 41.54025 -72.67059 4060 ft 102 kts 228°
2026-05-07 04:10 41.53502 -72.67697 4060 ft 102 kts 228°
2026-05-07 04:10 41.52986 -72.68326 4057 ft 102 kts 229°
2026-05-07 04:10 41.52458 -72.68968 4061 ft 103 kts 229°
2026-05-07 04:10 41.51930 -72.69612 4064 ft 102 kts 228°
2026-05-07 04:11 41.51405 -72.70251 4064 ft 102 kts 228°
2026-05-07 04:11 41.50878 -72.70894 4063 ft 103 kts 228°
2026-05-07 04:11 41.50353 -72.71533 4058 ft 102 kts 227°
2026-05-07 04:11 41.49830 -72.72169 4055 ft 102 kts 227°
2026-05-07 04:12 41.49306 -72.72804 4062 ft 102 kts 228°
2026-05-07 04:12 41.48784 -72.73442 4065 ft 104 kts 229°
2026-05-07 04:12 41.48256 -72.74083 4058 ft 100 kts 228°
2026-05-07 04:12 41.47736 -72.74715 4059 ft 101 kts 229°
2026-05-07 04:13 41.47218 -72.75340 4061 ft 101 kts 228°
2026-05-07 04:13 41.46692 -72.75973 4060 ft 103 kts 228°
2026-05-07 04:13 41.46159 -72.76615 4068 ft 105 kts 228°
2026-05-07 04:13 41.45611 -72.77270 4067 ft 106 kts 228°
2026-05-07 04:14 41.45068 -72.77918 4068 ft 104 kts 228°
2026-05-07 04:14 41.44532 -72.78558 4065 ft 105 kts 228°
2026-05-07 04:14 41.43984 -72.79214 4073 ft 106 kts 228°
2026-05-07 04:14 41.43430 -72.79875 4076 ft 107 kts 228°
2026-05-07 04:15 41.42879 -72.80534 4068 ft 106 kts 228°
2026-05-07 04:15 41.42334 -72.81181 4066 ft 105 kts 228°
2026-05-07 04:15 41.41794 -72.81824 4062 ft 103 kts 229°
2026-05-07 04:15 41.41262 -72.82457 4059 ft 103 kts 228°
2026-05-07 04:16 41.40731 -72.83090 4060 ft 102 kts 228°
2026-05-07 04:16 41.40211 -72.83709 4060 ft 102 kts 229°
2026-05-07 04:16 41.39687 -72.84332 4053 ft 101 kts 229°
2026-05-07 04:16 41.39169 -72.84949 4054 ft 99 kts 229°
2026-05-07 04:17 41.38654 -72.85561 4054 ft 99 kts 228°
2026-05-07 04:17 41.38142 -72.86171 4048 ft 99 kts 228°
2026-05-07 04:17 41.37629 -72.86781 4050 ft 99 kts 228°
2026-05-07 04:17 41.37113 -72.87395 4050 ft 100 kts 229°
2026-05-07 04:18 41.36599 -72.88006 4047 ft 99 kts 229°
2026-05-07 04:18 41.36085 -72.88620 3974 ft 100 kts 229°
2026-05-07 04:18 41.35567 -72.89240 3845 ft 99 kts 229°
2026-05-07 04:18 41.35059 -72.89846 3722 ft 100 kts 229°
2026-05-07 04:19 41.34539 -72.90464 3597 ft 101 kts 229°
2026-05-07 04:19 41.34009 -72.91095 3471 ft 103 kts 228°
2026-05-07 04:19 41.33474 -72.91730 3352 ft 103 kts 228°
2026-05-07 04:19 41.32938 -72.92366 3223 ft 104 kts 228°
2026-05-07 04:20 41.32396 -72.93010 3098 ft 104 kts 228°
2026-05-07 04:20 41.31856 -72.93651 2975 ft 104 kts 227°
2026-05-07 04:20 41.31311 -72.94300 2848 ft 106 kts 227°
2026-05-07 04:21 41.30212 -72.95601 2656 ft 103 kts 227°
2026-05-07 04:21 41.29681 -72.96209 2654 ft 99 kts 226°
2026-05-07 04:21 41.29159 -72.96795 2647 ft 98 kts 226°
2026-05-07 04:21 41.28645 -72.97373 2654 ft 96 kts 227°
2026-05-07 04:22 41.28157 -72.97923 2645 ft 88 kts 228°
2026-05-07 04:22 41.27700 -72.98434 2650 ft 84 kts 228°
2026-05-07 04:22 41.27259 -72.98934 2644 ft 82 kts 227°
2026-05-07 04:22 41.26834 -72.99411 2657 ft 79 kts 228°
2026-05-07 04:23 41.26424 -72.99874 2642 ft 76 kts 228°
2026-05-07 04:23 41.26036 -73.00309 2643 ft 68 kts 228°
2026-05-07 04:23 41.25710 -73.00673 2642 ft 56 kts 229°
2026-05-07 04:23 41.25435 -73.00976 2641 ft 48 kts 230°
2026-05-07 04:24 41.25181 -73.01259 2631 ft 49 kts 229°
2026-05-07 04:24 41.24900 -73.01576 2586 ft 58 kts 228°
2026-05-07 04:24 41.24564 -73.01956 2512 ft 68 kts 229°
2026-05-07 04:24 41.24178 -73.02393 2407 ft 78 kts 228°
2026-05-07 04:25 41.23746 -73.02883 2281 ft 85 kts 227°
2026-05-07 04:25 41.23286 -73.03401 2142 ft 88 kts 226°
2026-05-07 04:25 41.22817 -73.03928 2002 ft 91 kts 226°
2026-05-07 04:25 41.22332 -73.04473 1855 ft 90 kts 226°
2026-05-07 04:26 41.21881 -73.05013 1714 ft 85 kts 231°
2026-05-07 04:26 41.21476 -73.05555 1577 ft 80 kts 230°
2026-05-07 04:26 41.21096 -73.06058 1453 ft 75 kts 229°
2026-05-07 04:26 41.20736 -73.06536 1337 ft 73 kts 231°
2026-05-07 04:27 41.20380 -73.07010 1222 ft 73 kts 230°
2026-05-07 04:27 41.20040 -73.07459 1125 ft 65 kts 230°
2026-05-07 04:27 41.19734 -73.07865 1014 ft 60 kts 230°
2026-05-07 04:27 41.19449 -73.08241 924 ft 59 kts 231°
2026-05-07 04:28 41.19145 -73.08638 830 ft 67 kts 230°
2026-05-07 04:28 41.18775 -73.09124 756 ft 81 kts 229°
2026-05-07 04:28 41.18360 -73.09676 630 ft 86 kts 229°
2026-05-07 04:28 41.17924 -73.10242 524 ft 88 kts 227°
2026-05-07 04:29 41.17510 -73.10772 389 ft 81 kts 229°
2026-05-07 04:29 41.17137 -73.11272 301 ft 75 kts 232°
2026-05-07 04:29 41.16771 -73.11768 136 ft 73 kts 232°
2026-05-07 04:29 41.16436 -73.12225 25 ft 63 kts 236°
2026-05-07 04:30 41.16187 -73.12564 12 ft 36 kts 240°
2026-05-07 04:30 41.16206 -73.12735 13 ft 13 kts 316°
2026-05-07 04:30 41.16286 -73.12752 14 ft 9 kts 354°
2026-05-07 04:30 41.16304 -73.12758 14 ft 0 kts 327°